User: anonymous   Login
Location: Caltech
(34.1382°N, 118.1253°W)
Time: 00:23:53
(UTC-07:00)
Language:

Tiros 1 despin weight - Orbit

View from above orbital plane
View from above orbital plane
View from above satellite
View from above satellite

Ground track
Ground track

The orbit data is extracted from the following two-line orbital elements,

1 00115U 60002D   15087.33324800  .00002714  00000-0  36381-3 0  9997
2 00115 048.1652 082.1187 0034602 126.1004 234.3119 14.81824462929756
Epoch (UTC): 28 March 2015 07:59:52
Eccentricity: 0.0034602
inclination: 48.1652°
perigee height: 599 km
apogee height: 648 km
right ascension of ascending node: 82.1187°
argument of perigee: 126.1004°
revolutions per day: 14.81824462
mean anomaly at epoch: 234.3119°
orbit number at epoch: 92975

The dashed part of the orbit path shows where the satellite is in the earth's shadow,  

DLR